Powrót do katalogu

STARLINK-5365

AktywnyŁącznośćVLEO
NORAD 55498·PAYLOAD·🇺🇸 United States

Wystrzelony Feb 2, 2023 z Cape Canaveral Space Force Station

Loading…

Następne Przeloty (najbliższe 24 godziny)

TLE

ŚwieżeSource: CelesTrak SupGP

Epoka: Sep 15, 2026, 02:44 UTC

1 55498C 23015BB  26258.11437500  .00009647  00000+0  34947-3 0  2589
2 55498  43.0041 350.2353 0002357 271.4091  29.4683 15.27567960    18

Śledź STARLINK-5365 w czasie rzeczywistym z AllMySat

Download on the App Store